Wind_Speed
64 64 65 61 58 57 54 54 58 62 65 62 57 59 59 60 55 51 54 55 57 59 59 59 59 59 62 61 62 59 58 63 63 66 65 66 72 77
65 65 65 63 61 58 57 55 55 56 59 58 58 60 63 63 56 56 58 59 59 61 57 57 61 62 62 63 65 63 65 66 70 72 72 72 80 85
67 66 64 63 61 59 60 56 52 52 54 58 62 65 64 61 58 61 60 60 60 63 59 59 63 63 64 65 66 68 68 72 75 76 78 80 79 87
67 67 64 63 59 60 59 58 55 53 53 59 64 62 62 62 64 64 65 63 63 67 63 65 64 65 66 68 70 72 72 75 79 76 75 80 87 91
69 66 66 64 59 60 61 58 58 52 54 59 61 63 65 68 69 69 68 70 72 69 68 67 71 72 71 73 76 76 79 81 83 90 93 93 96 95
69 67 68 66 60 61 61 60 59 57 56 57 60 64 69 72 74 74 73 75 76 71 72 73 77 79 80 83 83 84 89 89 85 89 98 101 101 103
66 67 69 68 66 66 65 65 64 61 62 63 68 72 73 76 74 76 76 78 77 76 76 81 83 86 90 91 94 92 91 94 103 96 102 103 106 106
71 71 69 69 69 68 69 68 70 71 71 70 72 75 75 78 79 80 79 81 79 79 80 85 87 91 93 94 94 94 96 101 101 104 107 108 107 107
72 76 74 73 70 71 71 71 75 74 75 76 74 78 78 80 82 81 83 85 81 82 84 88 91 94 94 90 96 97 102 103 106 106 111 107 105 107
74 75 78 79 77 77 76 78 83 85 82 85 82 83 83 84 85 87 86 86 87 88 89 92 94 93 94 96 95 102 110 110 111 110 107 103 102 103
74 74 76 77 78 82 85 83 85 83 82 83 84 87 88 86 88 88 91 89 90 93 92 98 97 97 97 99 105 108 112 116 115 108 104 102 103 107
78 78 79 79 82 83 87 87 88 87 91 88 89 90 90 88 89 90 90 90 92 93 100 100 102 97 102 107 110 113 112 114 111 105 103 106 107 109
81 84 85 87 87 86 88 86 87 89 88 89 87 85 84 88 90 91 94 95 98 102 102 101 99 103 107 112 113 113 110 106 101 103 107 108 111 111
83 81 82 83 85 88 90 90 90 90 89 90 89 92 95 95 96 100 103 102 103 102 101 103 104 111 116 116 115 106 103 102 105 108 110 113 115 116
85 84 84 88 88 90 89 88 92 95 98 101 104 103 103 105 104 102 104 104 103 104 108 110 111 109 112 109 112 104 104 107 108 111 115 117 119 119
83 88 89 89 92 92 94 96 97 96 97 98 99 102 103 100 101 105 107 107 108 111 111 110 112 112 114 112 106 106 108 111 113 114 118 122 124 124
92 98 97 97 99 99 99 101 102 103 104 103 104 107 104 105 108 114 114 114 114 114 113 115 119 116 108 106 108 109 112 115 116 119 121 127 130 128
93 92 98 103 103 101 99 100 98 102 105 105 107 108 113 114 111 111 113 110 109 110 113 111 107 106 108 110 112 114 116 118 121 122 126 128 132 129
92 95 96 98 97 98 100 101 101 101 102 105 109 108 111 110 112 110 111 111 107 106 105 106 108 109 111 114 116 116 121 123 126 128 129 129 126 125
96 96 96 97 98 98 98 100 100 99 101 102 104 103 103 104 104 106 104 105 106 107 109 111 112 114 117 120 122 121 124 127 129 130 130 126 122 121
103 103 102 101 102 103 103 104 105 105 104 105 106 106 107 108 108 109 108 108 110 112 113 115 117 120 124 124 127 129 129 131 130 126 123 120 119 114
107 108 108 107 108 108 108 108 108 109 109 108 109 109 110 110 111 112 113 113 115 117 121 122 125 127 129 131 133 133 131 125 122 119 114 111 108 109
114 114 113 112 112 114 115 114 114 114 116 115 114 115 115 117 117 119 121 122 123 125 126 129 130 132 135 134 130 125 122 120 117 111 105 105 103 102
Wind_Direction
274 275 276 277 277 273 267 266 261 260 261 267 264 270 273 275 277 280 284 292 294 301 299 301 301 301 296 297 296 300 306 309 308 307 310 310 315 320
271 271 273 273 273 271 263 263 261 262 265 264 266 269 270 269 274 279 283 290 294 297 300 301 301 298 296 294 292 297 302 306 306 311 312 312 313 318
267 267 268 269 269 270 261 260 258 258 261 263 266 267 269 270 275 278 285 291 296 300 299 300 300 302 297 294 293 296 301 308 310 310 308 312 311 317
264 263 264 265 267 266 257 257 256 254 258 260 263 267 268 273 277 281 284 290 293 298 296 295 298 296 298 297 298 298 302 305 309 312 311 308 313 315
262 260 260 261 265 264 257 253 254 255 261 263 265 266 268 273 275 278 284 290 294 294 295 293 295 295 298 299 299 299 304 307 306 311 317 316 315 316
258 257 257 258 260 257 254 251 252 252 256 260 264 265 267 272 275 278 283 288 292 293 292 293 293 295 298 301 301 303 307 310 314 309 313 314 314 313
253 253 255 256 256 258 254 251 248 250 252 256 259 263 269 276 278 280 283 287 291 290 294 294 293 294 296 297 301 304 310 308 310 308 312 312 314 314
245 245 250 253 256 256 257 254 253 255 258 263 267 270 274 277 280 281 284 288 291 289 291 291 294 295 296 298 303 310 307 307 307 308 309 310 312 311
247 246 245 248 251 254 256 258 259 261 263 267 269 270 272 275 277 284 286 286 285 287 289 291 293 295 300 299 301 301 303 306 307 305 308 309 309 310
247 244 245 246 249 253 255 258 261 262 263 266 269 271 274 276 278 281 282 283 286 286 288 291 294 297 298 297 297 299 302 303 306 306 307 308 310 312
243 246 248 250 253 255 256 256 258 261 265 267 271 271 274 275 278 280 281 284 283 283 287 290 293 294 296 297 300 301 301 301 304 304 306 309 311 310
238 240 243 247 250 252 253 253 256 260 264 268 268 272 275 275 277 278 279 282 283 284 287 292 295 293 296 299 299 302 303 300 302 304 308 309 309 310
239 239 243 245 249 253 256 257 259 262 265 267 270 272 271 274 276 278 280 282 284 287 290 289 288 292 294 298 298 299 299 302 304 305 307 308 309 311
240 245 247 250 251 253 255 257 259 261 262 263 264 267 268 271 274 277 281 284 285 286 286 290 286 292 293 296 298 299 302 303 304 306 307 308 310 310
242 244 250 252 254 255 257 260 262 263 264 265 267 268 270 273 277 278 280 283 283 284 288 287 289 291 293 296 297 300 301 302 304 305 307 308 309 310
247 248 251 254 257 259 260 261 264 264 266 269 269 271 274 275 275 278 280 284 282 281 287 285 286 292 293 295 297 299 301 303 303 307 307 308 309 312
244 246 249 252 254 256 258 261 263 265 266 267 269 271 273 271 274 277 279 280 282 282 285 285 288 292 294 296 298 300 301 302 305 305 307 307 309 310
246 250 252 254 257 260 262 263 265 264 264 265 266 267 270 270 274 277 278 280 282 284 285 286 288 291 294 296 298 299 302 302 303 306 306 308 308 309
250 251 252 254 256 259 262 264 265 267 268 268 269 271 272 274 275 276 277 279 282 284 286 287 289 293 295 296 298 300 301 303 304 305 306 307 307 307
254 254 254 256 258 260 262 264 265 267 269 269 270 271 273 275 276 277 279 281 283 285 286 289 292 293 294 296 298 299 300 302 303 304 305 305 305 305
256 257 258 260 261 262 263 265 266 268 269 270 271 272 273 274 276 277 279 282 284 286 288 288 291 292 294 297 300 300 302 301 301 302 304 304 305 306
256 258 259 260 261 262 264 265 267 268 269 270 271 273 275 276 278 280 282 283 284 287 288 291 292 295 296 297 298 298 300 300 300 302 303 303 303 305
257 258 259 260 261 262 263 264 265 268 269 270 271 273 275 277 279 280 282 283 285 287 289 290 291 293 296 296 297 298 299 301 301 302 301 303 304 304
Height
10672 10671 10670 10669 10667 10665 10664 10664 10665 10667 10668 10672 10676 10674 10671 10668 10667 10667 10666 10664 10661 10658 10653 10647 10643 10639 10633 10629 10625 10621 10615 10608 10602 10596 10590 10583 10575 10566
10658 10657 10657 10655 10654 10653 10652 10652 10653 10655 10656 10660 10661 10660 10658 10656 10656 10655 10654 10652 10650 10646 10642 10636 10632 10627 10622 10617 10612 10608 10602 10595 10588 10581 10575 10564 10556 10548
10643 10642 10642 10642 10642 10641 10639 10640 10642 10644 10645 10646 10646 10645 10644 10642 10642 10642 10641 10639 10636 10631 10629 10625 10621 10615 10610 10604 10599 10595 10588 10580 10573 10566 10555 10545 10538 10529
10626 10627 10628 10629 10630 10629 10628 10628 10630 10632 10634 10634 10633 10632 10632 10629 10627 10627 10626 10624 10621 10617 10615 10610 10607 10602 10597 10592 10585 10579 10572 10564 10557 10546 10535 10528 10519 10508
10608 10611 10612 10615 10616 10616 10615 10615 10617 10619 10621 10621 10619 10619 10617 10614 10613 10612 10611 10608 10605 10602 10599 10595 10592 10587 10582 10576 10568 10562 10554 10546 10537 10525 10517 10507 10498 10488
10591 10594 10597 10599 10600 10601 10603 10602 10603 10604 10606 10606 10606 10604 10601 10599 10597 10597 10596 10593 10589 10584 10581 10578 10574 10568 10563 10558 10551 10545 10537 10525 10512 10506 10501 10490 10478 10467
10575 10578 10580 10582 10584 10585 10587 10587 10587 10589 10589 10591 10590 10588 10587 10585 10582 10581 10580 10576 10572 10567 10564 10559 10555 10549 10545 10539 10534 10524 10511 10500 10496 10488 10482 10472 10458 10446
10558 10561 10563 10565 10567 10569 10572 10572 10573 10576 10576 10578 10578 10577 10574 10570 10567 10565 10563 10559 10555 10550 10546 10541 10536 10531 10526 10521 10512 10497 10496 10488 10478 10471 10462 10453 10439 10426
10541 10543 10545 10548 10550 10553 10556 10558 10559 10559 10560 10559 10559 10558 10557 10553 10551 10550 10545 10541 10537 10534 10529 10523 10517 10512 10507 10498 10493 10487 10478 10470 10460 10451 10442 10431 10419 10407
10519 10524 10528 10531 10535 10537 10539 10542 10541 10541 10542 10541 10541 10539 10538 10536 10534 10532 10528 10524 10521 10515 10512 10505 10499 10494 10490 10483 10476 10467 10460 10449 10440 10431 10420 10409 10399 10386
10501 10505 10509 10513 10516 10519 10521 10522 10521 10521 10523 10523 10522 10521 10519 10516 10514 10512 10508 10506 10502 10498 10493 10489 10480 10476 10470 10462 10455 10448 10438 10428 10418 10409 10397 10386 10378 10365
10481 10485 10490 10494 10494 10496 10499 10500 10501 10501 10503 10503 10502 10501 10499 10497 10495 10492 10488 10486 10483 10479 10473 10467 10460 10455 10448 10441 10435 10428 10416 10405 10395 10386 10375 10364 10356 10345
10461 10466 10470 10474 10477 10478 10478 10480 10483 10483 10483 10482 10480 10479 10479 10478 10475 10472 10468 10464 10463 10457 10453 10446 10438 10433 10428 10421 10412 10405 10395 10385 10373 10363 10353 10342 10332 10323
10443 10447 10451 10453 10456 10458 10459 10461 10463 10463 10464 10463 10461 10460 10459 10457 10455 10451 10449 10445 10441 10436 10429 10425 10418 10413 10406 10398 10391 10384 10373 10363 10351 10340 10329 10318 10309 10300
10425 10427 10430 10433 10435 10437 10439 10441 10441 10442 10443 10441 10441 10439 10437 10436 10434 10430 10427 10424 10418 10412 10408 10402 10397 10390 10385 10376 10370 10361 10352 10341 10333 10321 10306 10293 10285 10276
10405 10409 10411 10412 10414 10416 10418 10417 10418 10422 10421 10419 10417 10418 10416 10413 10411 10407 10405 10401 10397 10391 10385 10380 10375 10370 10364 10356 10347 10340 10331 10317 10306 10299 10283 10266 10257 10250
10384 10387 10389 10390 10393 10395 10397 10397 10399 10399 10399 10398 10397 10396 10393 10391 10388 10385 10382 10379 10376 10370 10365 10358 10354 10348 10342 10334 10326 10318 10305 10294 10285 10273 10261 10241 10225 10221
10363 10363 10365 10367 10370 10372 10373 10375 10376 10375 10375 10375 10374 10371 10369 10368 10366 10362 10358 10356 10351 10347 10341 10336 10331 10325 10319 10311 10301 10293 10283 10270 10259 10251 10238 10225 10200 10189
10338 10338 10342 10345 10348 10348 10350 10350 10350 10351 10351 10350 10348 10346 10345 10343 10342 10340 10336 10333 10329 10324 10318 10312 10306 10301 10294 10285 10278 10271 10258 10248 10235 10224 10213 10199 10184 10167
10310 10314 10318 10322 10323 10325 10327 10326 10326 10326 10325 10324 10322 10321 10320 10320 10318 10315 10313 10309 10306 10300 10294 10289 10283 10276 10268 10261 10252 10249 10238 10224 10213 10200 10185 10169 10157 10143
10285 10289 10293 10298 10299 10300 10302 10301 10300 10300 10300 10297 10296 10296 10295 10294 10291 10289 10288 10285 10280 10275 10270 10263 10259 10251 10242 10236 10228 10214 10211 10201 10188 10176 10164 10146 10130 10113
10260 10263 10268 10272 10273 10274 10275 10274 10273 10273 10271 10272 10270 10270 10268 10267 10264 10261 10259 10257 10253 10248 10241 10237 10229 10222 10214 10208 10200 10189 10180 10172 10160 10150 10141 10124 10111 10096
10231 10234 10240 10244 10247 10246 10246 10248 10249 10247 10245 10246 10245 10243 10242 10239 10238 10234 10230 10226 10225 10221 10217 10208 10201 10195 10190 10179 10170 10162 10151 10140 10129 10119 10113 10102 10089 10077